Location: Unspecified
(54.1780°N, 0.0000°E)
Time: 17:53:52
(UTC+00:00)

Transit 2A - Pass Details

Date: 26 June 2019
Orbit: 594 x 964 km, 66.7° (Epoch: 21 July)

Event Time Altitude Azimuth Distance (km) Brightness Sun altitude
Rises 05:06:06 0° 307° (NW) 3,585 9.2 11.0°
Reaches altitude 10° 05:09:05 10° 319° (NW) 2,596 8.6 11.4°
Maximum altitude 05:14:16 29° 18° (NNE) 1,531 8.3 12.0°
Drops below altitude 10° 05:19:04 10° 78° (ENE) 2,386 10.9 12.7°
Sets 05:21:42 0° 90° (E) 3,249 10.6 13.0°
